DW7110 Weather Reports


Display with metric or nautical units.
time (UTC)temp
F
wind
direction
speed
MPH
gust
MPH
rain 1hr
in
rain 24hr
in
rain mn
in
humidity
%
barometer
mb
20260509144519 60 1 1.0 4.0 0.00 0.00 0.00 81 1013.8
20260509143012 60 1 0.0 6.0 0.00 0.00 0.00 84 1013.6
20260509141510 59 1 0.0 2.0 0.00 0.00 0.00 84 1013.8
20260509140007 58 1 0.0 0.0 0.00 0.00 0.00 88 1013.7
20260509134502 57 1 0.0 0.0 0.00 0.00 0.00 89 1014.0
20260509133104 56 1 0.0 2.0 0.00 0.00 0.00 90 1014.0
20260509131601 55 1 0.0 0.0 0.00 0.00 0.00 90 1014.2
20260509124555 53 1 0.0 0.0 0.00 0.00 0.00 91 1014.0
20260509123054 52 1 0.0 4.0 0.00 0.00 0.00 92 1013.9
20260509121552 51 1 0.0 0.0 0.00 0.00 0.00 91 1014.1
20260509120058 51 1 0.0 0.0 0.00 0.00 0.00 91 1014.2
20260509114551 50 1 0.0 0.0 0.00 0.00 0.00 92 1014.5
20260509113050 50 1 0.0 0.0 0.00 0.00 0.00 91 1014.7
20260509111551 50 1 0.0 0.0 0.00 0.00 0.00 90 1014.6
20260509110050 50 1 0.0 0.0 0.00 0.00 0.00 91 1014.5
20260509104549 50 1 0.0 0.0 0.00 0.00 0.00 91 1014.2
20260509103048 50 1 0.0 0.0 0.00 0.00 0.00 91 1014.1
20260509101548 50 1 0.0 0.0 0.00 0.00 0.00 90 1014.0
20260509100046 50 1 0.0 0.0 0.00 0.00 0.00 91 1014.2
20260509094545 50 1 0.0 0.0 0.00 0.00 0.00 90 1014.5
20260509093045 50 1 0.0 0.0 0.00 0.00 0.00 91 1014.4
20260509091544 50 1 0.0 0.0 0.00 0.00 0.00 91 1014.2
20260509090046 50 1 0.0 0.0 0.00 0.00 0.00 91 1014.1
20260509084542 50 1 0.0 0.0 0.00 0.00 0.00 90 1014.3
20260509083042 50 1 0.0 0.0 0.00 0.00 0.00 90 1014.1
20260509081546 50 1 0.0 0.0 0.00 0.00 0.00 89 1014.2
20260509080040 50 1 0.0 0.0 0.00 0.00 0.00 89 1014.3
20260509074535 51 1 0.0 0.0 0.00 0.00 0.00 89 1014.4
20260509073033 51 1 0.0 2.0 0.00 0.00 0.00 89 1014.5
20260509071531 52 1 0.0 0.0 0.00 0.00 0.00 89 1014.7
20260509070031 52 1 0.0 0.0 0.00 0.00 0.00 88 1015.0
20260509064529 52 1 0.0 0.0 0.00 0.00 0.00 88 1014.8
20260509063026 52 1 0.0 0.0 0.00 0.00 0.00 88 1015.1
20260509061526 52 1 0.0 0.0 0.00 0.00 0.00 88 1015.3
20260509060024 52 1 0.0 0.0 0.00 0.00 0.00 87 1015.4
20260509054520 52 1 0.0 0.0 0.00 0.00 0.00 86 1015.6
20260509053017 53 1 0.0 0.0 0.00 0.00 0.00 85 1016.0
20260509051515 54 1 0.0 0.0 0.00 0.00 0.00 84 1016.2
20260509050013 54 1 0.0 0.0 0.00 0.00 0.00 84 1016.3
20260509044510 54 1 0.0 2.0 0.00 0.00 0.00 83 1016.4
20260509043009 54 1 1.0 4.0 0.00 0.00 0.00 83 1016.6
20260509041509 54 1 0.0 0.0 0.00 0.00 0.00 82 1016.5
20260509040006 54 1 0.0 5.0 0.00 0.00 0.00 81 1016.7
20260509034505 55 1 0.0 0.0 0.00 0.00 0.00 81 1017.0
20260509033005 55 1 0.0 4.0 0.00 0.00 0.00 81 1016.9
20260509031504 55 1 0.0 4.0 0.00 0.00 0.00 81 1017.0
20260509030012 55 1 0.0 3.0 0.00 0.00 0.00 81 1017.1
20260509024504 55 1 2.0 4.0 0.00 0.00 0.00 81 1017.1
20260509023002 55 1 0.0 4.0 0.00 0.00 0.00 82 1017.0
20260509021503 55 1 0.0 3.0 0.00 0.00 0.00 81 1016.9
20260509020005 55 1 0.0 0.0 0.00 0.00 0.00 80 1016.8
20260509014502 56 1 0.0 4.0 0.00 0.00 0.00 80 1016.9
20260509013104 56 1 0.0 6.0 0.00 0.00 0.00 79 1016.8
20260509011600 57 1 2.0 5.0 0.00 0.00 0.00 77 1016.7
20260509004600 58 1 0.0 5.0 0.00 0.00 0.00 77 1016.6
20260509003106 58 1 0.0 0.0 0.00 0.00 0.00 76 1016.5
20260509001558 59 1 0.0 2.0 0.00 0.00 0.00 76 1016.4
20260509000110 59 1 0.0 3.0 0.00 0.00 0.00 73 1016.3
20260508234559 60 1 0.0 0.0 0.00 0.00 0.00 73 1015.9
20260508233056 60 1 0.0 0.0 0.00 0.00 0.00 74 1016.1
20260508231558 61 1 0.0 3.0 0.00 0.00 0.00 74 1016.2
20260508230105 62 1 0.0 3.0 0.00 0.00 0.00 69 1016.0
20260508224552 62 1 1.0 6.0 0.00 0.00 0.00 69 1016.0
20260508223050 63 1 0.0 4.0 0.00 0.00 0.00 66 1016.0
20260508221549 63 1 0.0 7.0 0.00 0.00 0.00 68 1015.9
20260508220049 64 1 0.0 2.0 0.00 0.00 0.00 70 1015.9
20260508214548 65 1 0.0 4.0 0.00 0.00 0.00 67 1015.8
20260508213047 65 1 0.0 6.0 0.00 0.00 0.00 62 1015.7
20260508211546 65 1 0.0 4.0 0.00 0.00 0.00 65 1015.9
20260508210046 65 1 0.0 5.0 0.00 0.00 0.00 60 1015.6
20260508204544 65 1 0.0 3.0 0.00 0.00 0.00 64 1015.6
20260508203042 65 1 0.0 8.0 0.00 0.00 0.00 61 1015.8
20260508201543 65 1 0.0 5.0 0.00 0.00 0.00 56 1015.9
20260508200040 65 1 1.0 5.0 0.00 0.00 0.00 57 1016.1
20260508194610 65 1 0.0 8.0 0.00 0.00 0.00 63 1016.1
20260508193038 67 1 3.0 7.0 0.00 0.00 0.00 57 1016.6
20260508191538 67 1 1.0 8.0 0.00 0.00 0.00 61 1016.9
20260508190038 68 1 2.0 5.0 0.00 0.00 0.00 58 1017.1
20260508184536 68 1 2.0 9.0 0.00 0.00 0.00 56 1017.2
20260508183034 67 1 3.0 7.0 0.00 0.00 0.00 59 1017.4
20260508181550 67 1 1.0 5.0 0.00 0.00 0.00 59 1017.6
20260508180030 65 1 2.0 7.0 0.00 0.00 0.00 58 1017.7
20260508174530 65 1 0.0 6.0 0.00 0.00 0.00 56 1017.9
20260508173037 66 1 2.0 6.0 0.00 0.00 0.00 58 1018.0
20260508171532 65 1 2.0 9.0 0.00 0.00 0.00 56 1018.4
20260508170027 64 1 1.0 7.0 0.00 0.00 0.00 58 1018.8
20260508164524 65 1 0.0 4.0 0.00 0.00 0.00 50 1018.8
20260508163022 64 1 1.0 7.0 0.00 0.00 0.00 47 1019.1
20260508161524 62 1 1.0 7.0 0.00 0.00 0.00 58 1019.3
20260508160018 60 1 0.0 5.0 0.00 0.00 0.00 67 1019.5
20260508154509 59 1 1.0 8.0 0.00 0.00 0.00 63 1019.5
20260508153008 59 1 1.0 5.0 0.00 0.00 0.00 70 1019.6
20260508151505 57 1 0.0 2.0 0.00 0.00 0.00 73 1019.8